Theta_e
317 317 317 316 316 315 316 316 316 316 316 316 316 316 316 316 316 316 316 315 314 315 314 315 315 315 312 308 308 324 329 325 317 311 306 308 307 306 302 305 307 305 307 309 310 310 310
315 315 315 315 315 315 315 315 315 315 316 316 316 315 315 315 315 316 316 316 314 313 313 314 315 315 309 300 321 323 317 313 311 308 309 311 308 310 306 306 306 309 308 308 309 309 310
315 315 314 315 315 315 315 314 314 314 315 315 315 315 315 315 315 316 316 316 315 313 314 315 316 314 308 306 318 320 317 313 314 314 311 312 312 309 309 305 310 308 305 307 307 309 307
314 314 314 315 315 315 314 313 313 313 314 314 314 314 314 315 314 314 315 315 314 314 315 315 316 313 305 316 316 318 316 315 318 316 314 314 313 309 308 309 307 304 304 299 306 307 308
314 314 315 315 314 315 314 313 313 313 313 313 313 313 313 314 314 314 314 313 314 316 316 315 313 311 305 314 311 319 318 312 312 314 315 315 311 307 307 302 300 302 296 298 301 307 306
315 314 314 315 315 314 314 313 313 314 313 313 313 312 312 313 313 313 313 312 317 315 315 317 315 309 311 308 312 316 318 315 310 310 310 308 307 304 303 300 293 296 297 299 299 304 305
316 315 315 315 315 315 314 314 314 313 313 313 313 312 312 312 312 312 311 314 314 312 315 309 309 306 307 311 315 313 316 312 312 309 302 306 300 298 301 303 303 302 301 300 303 306 304
316 315 315 315 315 314 314 314 314 314 313 313 313 312 312 311 311 311 310 308 312 315 306 315 314 312 312 313 307 311 315 306 307 302 305 303 298 303 305 304 302 301 299 299 303 305 304
316 316 316 316 315 314 314 314 314 314 313 312 312 311 311 311 310 309 308 312 317 316 305 308 313 311 310 311 307 308 311 308 305 302 303 299 302 305 303 302 300 300 298 299 299 302 304
316 316 316 316 315 314 314 315 314 314 314 313 312 311 310 310 308 315 313 318 319 318 300 304 307 309 311 310 304 312 313 309 305 301 303 302 306 303 301 299 300 296 302 300 299 298 293
317 316 316 315 314 314 314 314 314 314 313 313 312 310 310 309 310 313 316 319 320 317 291 307 307 316 312 304 307 308 314 309 302 302 302 299 301 300 299 300 302 298 302 301 300 297 297
317 317 316 315 315 315 314 314 314 313 313 312 311 310 309 315 312 316 320 318 316 299 291 302 307 304 304 305 306 308 307 309 308 302 303 301 306 304 302 303 303 303 301 300 300 297 291
316 316 316 316 315 315 314 313 313 313 312 312 310 309 307 316 316 319 318 313 300 295 307 301 302 304 303 301 303 304 302 300 296 293 294 299 300 303 304 300 303 301 297 290 289 289 288
316 316 316 315 315 315 314 313 313 312 311 310 307 306 313 317 321 320 316 306 295 301 301 305 304 304 301 303 303 303 302 299 302 299 296 294 293 301 304 301 297 298 298 290 285 287 291
317 316 316 316 315 315 313 313 312 311 310 307 304 318 319 321 320 319 312 299 298 301 303 301 302 298 299 304 303 303 302 301 303 303 296 295 295 304 305 306 303 298 294 300 293 295 291
316 316 316 315 314 314 314 313 312 312 309 306 307 314 318 320 322 317 307 300 302 305 304 303 297 301 296 300 300 301 301 305 303 305 307 301 294 303 304 306 306 301 303 293 294 286 285
315 315 315 314 314 314 314 313 312 311 307 305 311 312 318 322 321 311 301 303 305 307 306 302 300 299 300 299 300 299 300 304 306 304 306 303 299 298 302 299 299 299 297 298 297 294 288
315 315 315 315 314 314 313 312 312 310 305 308 312 306 317 321 308 310 303 305 300 304 307 304 304 302 300 301 299 299 298 301 307 305 299 302 299 293 296 303 305 303 300 299 293 291 295
314 314 314 314 314 313 313 312 312 310 306 304 307 308 318 317 301 302 306 303 304 303 303 303 301 303 303 300 296 300 301 304 304 303 300 302 297 290 292 298 301 298 300 301 301 301 293
314 314 314 314 314 313 313 312 312 310 307 305 307 302 309 310 309 303 302 301 300 305 302 303 302 303 300 298 301 297 298 302 304 303 302 302 297 293 288 293 297 293 295 297 297 292 292
313 312 312 313 313 313 313 313 312 310 307 306 309 304 306 301 303 303 303 301 299 298 302 303 299 299 296 292 296 296 298 299 302 303 300 300 292 294 294 296 296 295 295 296 294 296 291
311 311 311 311 312 313 313 313 312 310 306 307 303 302 305 303 303 302 298 299 298 299 298 297 296 297 298 293 294 292 295 295 295 299 298 300 290 293 291 294 295 293 295 296 295 296 296
311 310 310 310 311 312 312 312 313 310 306 308 310 310 306 301 302 301 300 299 298 299 299 300 298 296 295 296 300 301 300 300 299 297 295 293 292 290 286 293 293 290 294 295 296 297 296
309 309 309 310 311 311 311 312 313 311 306 306 308 307 302 298 301 300 300 300 298 299 296 299 300 296 300 304 303 301 300 299 297 297 299 292 290 289 287 291 282 294 301 299 297 297 299
307 308 308 309 310 311 311 311 313 311 308 306 309 306 302 297 300 300 300 299 300 300 298 298 299 302 304 300 294 291 294 293 295 297 296 295 291 288 286 286 291 294 297 297 294 295 301
305 305 306 307 309 311 312 312 313 311 307 304 309 312 306 299 298 302 299 299 296 296 298 297 301 305 302 297 292 287 287 290 289 292 298 296 295 289 289 284 282 294 299 302 300 289 301
306 305 305 306 308 309 311 312 313 311 308 305 308 316 306 299 302 302 297 296 300 297 294 298 297 298 301 294 290 288 288 294 288 288 289 290 289 285 286 285 290 299 301 302 288 292 302
306 306 305 305 306 308 310 311 312 312 308 305 308 314 307 300 302 304 303 299 298 296 293 298 296 296 296 291 291 291 290 292 291 293 291 290 289 288 290 286 284 301 300 293 298 302 302
306 306 305 305 305 307 309 310 312 312 309 306 306 311 310 302 302 308 307 308 305 303 299 299 296 294 297 293 293 293 291 292 291 287 296 290 293 289 290 292 301 303 302 303 303 301 301
Wind_Speed
15 15 15 15 15 15 14 15 14 15 15 15 17 18 17 17 16 15 14 14 14 13 13 13 13 10 10 10 15 8 11 11 11 15 16 19 20 20 21 20 22 21 20 20 21 25 8
14 14 15 15 16 16 15 15 16 15 15 15 16 17 17 18 17 15 13 13 13 13 12 12 11 9 9 13 5 12 9 10 13 19 17 22 13 16 17 22 20 15 19 17 18 19 17
15 15 15 15 15 15 16 17 16 16 16 16 16 16 17 17 18 17 16 13 11 13 12 11 10 10 13 20 4 6 8 11 15 18 15 18 18 15 18 16 19 12 9 13 20 15 17
15 16 16 16 15 15 16 18 18 17 18 17 17 17 17 18 18 18 19 17 16 14 13 10 9 10 11 7 19 12 11 12 13 11 13 9 12 13 12 15 12 15 14 16 17 19 15
16 15 15 14 14 15 16 17 17 18 18 18 19 19 18 19 19 20 19 21 17 12 10 8 7 11 11 4 10 12 11 10 8 11 10 7 9 13 14 13 14 14 15 20 19 20 20
16 15 16 16 16 16 17 18 18 19 19 20 20 21 20 19 20 20 20 23 8 4 6 9 11 10 11 13 12 12 11 10 9 10 10 9 8 13 15 14 14 13 17 18 19 18 15
15 15 15 15 15 14 17 17 18 18 18 20 20 21 21 20 21 18 16 6 6 7 12 10 11 10 2 16 11 13 12 9 10 11 12 14 12 15 18 18 18 20 18 15 15 18 18
14 15 16 15 16 15 15 16 17 19 20 20 20 22 22 22 20 18 12 10 15 13 12 24 21 17 20 2 7 11 14 11 13 13 14 13 15 17 18 18 19 20 20 14 16 14 8
13 14 15 16 15 15 17 18 18 19 20 21 23 23 23 23 21 14 15 18 13 16 8 16 21 19 16 9 11 13 16 15 13 14 16 16 19 20 16 15 15 11 14 13 18 16 15
14 14 15 16 16 15 17 18 18 19 22 23 23 25 22 23 9 9 12 19 15 9 6 7 7 8 16 13 14 18 18 14 15 18 15 15 19 12 9 13 15 15 16 17 17 15 13
14 14 15 16 16 16 17 18 19 21 21 24 24 24 24 14 12 7 9 7 7 2 6 6 11 13 14 11 3 15 12 12 17 18 10 15 16 13 16 16 15 16 16 16 16 13 16
14 14 15 16 17 17 17 18 20 21 22 25 26 24 23 4 7 13 11 8 5 7 4 6 9 11 16 16 11 11 9 7 12 16 17 17 20 14 9 13 14 13 15 15 13 11 15
14 14 15 17 17 17 18 18 20 21 23 25 27 26 14 11 8 8 7 6 6 7 7 3 4 13 17 16 17 13 16 14 11 10 13 16 20 14 12 11 13 15 13 11 12 14 14
13 14 15 16 16 18 19 20 20 21 24 25 29 28 7 10 9 7 7 8 8 8 8 4 6 5 9 9 11 16 15 15 18 16 11 12 13 15 14 16 13 13 12 13 17 14 15
13 14 15 16 17 18 19 20 20 21 23 26 30 10 5 3 4 4 8 7 6 10 11 10 12 11 14 9 7 8 14 14 8 14 15 14 20 15 15 18 15 17 17 15 16 18 17
11 12 14 15 15 17 19 19 20 22 24 28 9 8 2 2 4 7 10 10 3 8 10 11 12 11 7 4 2 5 3 8 8 7 7 8 10 8 13 11 18 16 9 9 9 17 22
10 11 12 14 15 16 18 18 20 22 26 31 5 6 7 4 4 8 9 5 6 11 6 9 13 14 16 10 7 9 5 7 9 7 7 9 7 10 16 15 15 13 13 12 12 13 4
9 10 11 12 14 15 16 16 18 19 26 12 6 5 6 3 7 7 4 6 4 6 8 8 7 10 11 13 15 10 6 8 8 11 5 6 6 10 17 18 15 17 20 18 10 14 12
11 11 10 12 13 13 16 15 16 16 13 9 7 10 6 2 4 2 9 5 4 4 9 10 9 8 9 13 11 10 9 12 2 3 4 4 4 8 11 15 22 15 13 14 12 18 19
11 10 10 11 12 13 14 15 14 15 11 8 6 5 3 3 1 8 12 9 4 8 6 7 10 11 9 13 9 7 12 2 4 6 8 2 8 14 12 17 9 8 11 16 9 6 9
9 10 10 10 11 11 14 15 14 16 14 5 6 4 3 5 6 7 7 12 9 7 8 10 6 9 7 6 12 14 8 13 5 7 1 3 9 15 19 23 23 25 19 19 19 15 12
9 10 10 11 12 11 13 14 15 16 21 5 5 5 8 10 3 7 2 7 6 7 6 10 7 10 10 8 10 16 16 9 8 3 5 4 6 13 18 17 21 23 22 20 21 21 23
10 11 12 13 12 11 11 12 13 13 11 7 8 5 6 7 6 8 4 7 8 6 6 5 6 9 11 9 8 11 13 14 12 13 7 2 4 5 10 15 15 15 17 19 18 20 15
11 14 14 14 13 11 10 11 10 8 7 5 9 8 9 9 9 5 5 8 9 8 8 11 11 11 7 13 13 15 19 18 17 16 12 5 6 3 6 10 9 6 8 7 6 6 6
13 14 14 15 13 10 10 11 9 7 7 6 8 5 4 7 10 11 6 6 8 8 5 9 7 4 6 10 9 10 10 12 19 19 15 11 7 4 4 7 14 14 4 4 5 7 8
13 13 14 15 14 10 9 9 7 6 5 5 6 5 5 6 2 11 9 5 7 7 10 3 1 4 6 6 5 6 5 2 2 2 10 17 14 8 3 4 4 4 7 6 8 7 9
14 13 12 13 13 12 10 9 7 7 5 5 4 4 4 6 5 7 6 4 5 5 6 8 5 3 4 2 4 7 7 4 3 4 2 3 6 12 9 7 8 3 3 2 7 4 8
15 13 12 11 11 12 11 10 8 8 7 4 3 3 4 4 11 8 7 6 3 5 4 6 7 3 3 3 3 3 4 4 6 2 4 6 3 5 6 5 7 10 5 3 2 4 8
14 13 11 11 11 11 11 10 8 8 9 6 4 2 3 5 9 15 14 15 12 11 3 3 3 2 3 4 3 6 4 5 5 4 3 3 3 1 3 4 0 4 11 1 4 7 8
Wind_Direction
347 347 347 347 345 342 339 337 339 338 336 336 336 336 336 333 332 329 328 314 299 291 287 287 289 295 283 234 252 114 137 145 177 216 214 232 232 218 217 227 228 227 233 233 239 261 267
341 343 343 341 339 335 336 339 337 335 333 331 330 329 329 329 327 323 320 317 297 286 279 279 280 292 250 261 293 130 170 160 197 205 205 240 226 231 223 234 238 228 232 236 254 246 257
337 338 337 337 334 334 335 335 336 333 330 327 325 322 322 322 322 320 316 314 298 279 273 270 271 261 263 247 346 130 172 190 193 210 215 233 238 232 239 254 250 246 232 238 248 244 242
335 336 336 335 333 331 331 331 330 330 327 324 320 317 317 316 318 318 316 308 303 276 264 252 258 263 257 284 230 230 186 210 226 220 256 253 270 283 253 243 252 244 254 246 237 235 234
330 332 329 326 325 325 325 325 326 324 324 321 318 315 315 313 316 317 313 312 295 268 249 228 230 220 255 157 210 234 206 212 203 228 237 287 237 241 244 244 235 227 236 233 250 230 211
324 326 326 328 327 327 328 327 324 322 321 318 315 313 313 313 313 314 313 301 321 163 197 197 256 256 250 239 192 219 204 208 189 206 210 225 227 226 232 221 232 223 216 240 247 232 194
319 321 322 322 324 323 319 320 318 315 316 314 313 311 310 312 310 312 318 249 208 192 216 216 195 247 151 224 165 208 197 232 205 212 222 204 220 211 221 227 241 260 242 280 224 243 198
315 318 318 318 319 318 315 313 313 314 314 313 311 309 310 308 307 300 292 246 250 331 297 224 246 258 268 192 196 217 187 209 220 231 216 232 227 238 228 238 227 250 273 271 289 300 278
308 310 311 311 315 317 320 317 318 316 314 313 312 311 312 311 309 284 223 242 262 282 291 285 206 220 243 201 244 211 198 212 229 230 244 232 231 208 249 246 249 263 276 262 262 273 256
301 305 309 309 311 314 317 316 317 316 315 313 313 313 316 320 291 248 207 222 242 256 273 183 167 210 199 249 246 253 196 213 230 250 228 253 245 263 226 258 272 239 245 247 268 269 262
299 303 305 306 307 313 315 314 316 316 315 312 313 316 318 318 310 273 32 353 3 189 273 252 134 132 167 196 22 206 241 200 242 241 248 263 242 253 263 250 247 250 253 260 240 245 267
297 302 306 304 307 312 312 313 314 315 316 312 311 316 326 216 219 255 297 305 230 234 249 178 136 184 159 201 218 151 218 228 244 252 272 277 283 312 297 274 234 267 253 264 271 264 256
300 304 306 307 310 312 312 314 314 316 317 313 312 312 313 297 280 322 313 243 239 239 209 193 172 161 183 192 226 170 189 192 225 241 244 264 268 252 264 272 273 225 241 253 244 237 248
296 300 306 310 310 312 315 315 317 319 317 315 314 310 245 231 259 291 257 237 252 258 62 64 301 272 229 220 225 202 202 211 199 227 229 268 267 253 217 237 254 264 228 242 252 258 266
303 307 311 313 314 315 316 317 319 322 322 317 310 276 237 200 291 258 262 260 296 17 16 354 325 286 262 201 277 267 226 238 233 221 257 285 255 258 270 284 238 246 263 282 294 298 290
310 313 313 313 314 314 315 320 325 327 325 317 312 286 193 156 181 262 262 243 331 46 5 323 300 314 321 231 234 326 29 357 325 33 4 278 311 307 292 283 271 264 253 239 261 265 267
315 312 307 310 313 315 317 325 329 332 328 315 263 248 98 247 192 250 255 286 296 41 2 339 334 322 317 317 259 288 244 11 332 289 261 286 269 274 297 284 264 266 253 249 241 258 254
304 304 307 312 314 319 317 326 331 338 334 334 301 276 86 248 248 248 235 250 15 333 331 285 287 300 304 332 320 289 290 210 352 331 273 22 315 280 279 280 262 249 266 256 242 254 256
305 305 311 312 311 319 316 325 331 337 3 321 292 297 114 217 258 136 269 349 151 328 350 331 313 326 324 316 316 305 327 126 12 220 351 31 236 287 276 247 233 252 308 289 265 244 241
304 310 313 315 314 319 316 322 329 326 345 323 282 293 146 217 349 339 8 313 331 97 331 356 328 316 326 311 281 280 292 32 319 113 72 342 266 259 264 285 294 245 283 295 276 248 269
298 312 322 323 317 322 317 320 325 323 334 303 246 34 15 322 43 336 327 312 301 336 18 339 311 61 0 308 317 286 1 316 242 146 255 261 268 275 272 273 273 278 267 250 248 252 248
297 307 317 321 316 321 315 321 324 330 332 242 317 346 353 286 315 293 210 312 352 354 332 306 294 339 324 292 287 300 301 298 298 198 263 163 278 285 281 269 259 261 263 266 265 259 259
293 301 311 311 308 309 308 317 318 333 333 291 4 304 269 293 275 261 39 350 316 317 319 45 341 309 293 308 320 285 282 287 258 278 288 211 291 296 269 264 266 258 253 255 259 255 254
316 310 308 302 299 298 299 307 307 320 343 310 314 312 302 279 285 303 2 331 313 320 318 320 316 299 304 325 298 277 264 254 247 250 240 211 225 250 273 290 257 285 317 261 286 301 319
312 314 312 306 297 294 294 294 296 296 321 296 303 322 310 306 305 312 12 322 331 288 260 284 328 3 339 296 296 283 255 230 233 228 217 196 231 267 261 275 289 280 200 35 36 313 23
312 313 315 315 318 307 297 286 286 271 302 293 293 316 305 286 12 336 325 316 324 315 270 70 339 308 266 288 270 272 283 264 141 297 249 194 215 236 293 281 284 89 66 1 324 259 31
304 305 305 308 314 314 310 305 293 238 254 280 307 319 292 280 279 360 354 323 314 331 296 326 348 302 308 238 265 277 273 319 275 165 181 195 211 219 237 243 260 122 289 307 243 30 340
301 296 294 295 302 304 307 302 294 227 217 264 317 20 308 277 286 305 326 273 267 262 268 356 283 32 311 258 287 348 295 331 277 188 195 193 222 214 225 237 247 359 307 336 11 308 302
297 297 291 285 291 295 297 301 281 228 202 223 261 70 354 269 299 317 285 271 258 246 216 215 345 283 311 291 13 302 315 296 328 295 11 277 257 309 266 310 224 306 300 305 300 287 334